Location: Lucerne Valley
(34.4439°N, 116.9669°E)
Time: 08:18:38
(UTC-08:00)

Vanguard 2 - Visible Passes

Search period start: 12 December 2017 00:00
Search period end: 22 December 2017 00:00
Orbit: 553 x 2939 km, 32.9° (Epoch: 11 December)

Date Brightness Start Highest point End Pass type
(mag) Time Alt. Az. Time Alt. Az. Time Alt. Az.
12 Dec 6.9 02:52:28 10° W 02:56:55 68° S 02:57:10 65° SSE visible
13 Dec 7.5 03:10:40 10° W 03:14:26 51° SW 03:14:26 51° SW visible
14 Dec 8.5 03:28:53 10° W 03:31:44 32° WSW 03:31:44 32° WSW visible
15 Dec 7.4 01:37:18 10° W 01:43:05 74° S 01:47:13 10° E visible
15 Dec 9.3 03:47:13 10° W 03:49:03 21° WSW 03:49:03 21° WSW visible
16 Dec 7.5 01:55:34 10° W 02:01:09 66° S 02:05:00 11° ESE visible
16 Dec 9.9 04:05:45 10° WSW 04:06:26 13° WSW 04:06:26 13° WSW visible
17 Dec 7.8 02:13:51 10° W 02:19:10 53° SSW 02:22:25 15° ESE visible
18 Dec 8.3 02:32:10 10° W 02:37:08 40° SSW 02:39:54 17° SE visible
19 Dec 8.9 02:50:38 10° W 02:55:00 28° SSW 02:57:28 16° SSE visible
20 Dec 9.4 03:09:22 10° WSW 03:12:47 19° SSW 03:15:06 13° S visible
21 Dec 9.9 03:29:02 10° WSW 03:30:30 11° SW 03:31:52 10° SSW visible
